Overview Statistics Trail Chart Weather Telemetry Raw packets
 

This is the latest recevied weather packets stored in our database for station/object W0AKY-13. If no packets are shown the sender has not sent any weather packets the latest 10 day(s).

<< 60 61 62 63 64 65 66 >>
Time Temp. Humidity Pressure Rain* Wind** Luminosity Snow
1788132378 34.44° C 62% 1010.5 hPa 0 mm - 36 W/m² -
1788132074 35° C 60% 1010.4 hPa 0 mm - 38 W/m² -
1788131769 35.56° C 60% 1010.2 hPa 0 mm - 40 W/m² -
1788131471 35.56° C 57% 1010.2 hPa 0 mm - 45 W/m² -
1788131164 36.11° C 58% 1010.2 hPa 0 mm - 62 W/m² -
1788130858 36.67° C 58% 1010.1 hPa 0 mm - 65 W/m² -
1788130554 36.67° C 55% 1010.1 hPa 0 mm - 143 W/m² -
1788130254 36.11° C 64% 1010 hPa 0 mm - 193 W/m² -
1788129952 35° C 58% 1010 hPa 0 mm - 195 W/m² -
1788129649 35° C 59% 1010.5 hPa 0 mm - 88 W/m² -
1788129346 35.56° C 59% 1010.3 hPa 0 mm - 196 W/m² -
1788129045 35.56° C 54% 1010.2 hPa 0 mm - 71 W/m² -
1788128740 36.11° C 55% 1010.2 hPa 0 mm - 110 W/m² -
1788128436 36.11° C 53% 1009.8 hPa 0 mm - 282 W/m² -
1788128132 36.11° C 53% 1010 hPa 0 mm - 294 W/m² -
1788127828 35.56° C 54% 1009.9 hPa 0 mm - 313 W/m² -
1788127527 35.56° C 59% 1009.8 hPa 0 mm - 131 W/m² -
1788127226 35° C 58% 1010 hPa 0 mm - 165 W/m² -
1788126920 35° C 55% 1009.7 hPa 0 mm - 149 W/m² -
1788126615 34.44° C 58% 1009.6 hPa 0 mm - 236 W/m² -
1788126310 34.44° C 54% 1010 hPa 0 mm - 131 W/m² -
1788126004 35° C 52% 1010.2 hPa 0 mm - 83 W/m² -
1788125699 35.56° C 53% 1009.9 hPa 0 mm - 138 W/m² -
1788125394 36.67° C 51% 1010.3 hPa 0 mm - 143 W/m² -
1788125090 35.56° C 53% 1010.2 hPa 0 mm - 257 W/m² -

* Rain latest hour (hover to see other rain measurements)
** Current wind speed in m/s (hover to see current wind gust speed)